• In Portugal
  • List of Countries
  • For 7 days
  • Water Temperature
  • Satellite Maps
  • Weather Map
  • Weather Widgets
  • user-avatar
    Login

    Hourly Weather Babino

    Today, 24 September, Monday

    Time Temperature Precipitation Wind Pressure Humidity
    00:00 +7°C° 0 mm 3 mps 743 mmHg 92%
    01:00 +7°C° 0 mm 2 mps 743 mmHg 94%
    02:00 +6°C° 0 mm 2 mps 742 mmHg 97%
    03:00 +6°C° 0 mm 2 mps 742 mmHg 97%
    04:00 +6°C° 0 mm 2 mps 741 mmHg 96%
    05:00 +6°C° 0 mm 2 mps 741 mmHg 96%
    06:00 +7°C° 0.2 mm 2 mps 741 mmHg 95%
    07:00 +8°C° 0.2 mm 2 mps 740 mmHg 94%
    08:00 +8°C° 0.2 mm 2 mps 740 mmHg 93%
    09:00 +8°C° 1.2 mm 2 mps 739 mmHg 93%
    10:00 +8°C° 1.2 mm 2 mps 739 mmHg 94%
    11:00 +8°C° 1.2 mm 2 mps 738 mmHg 94%
    12:00 +8°C° 2.4 mm 3 mps 738 mmHg 95%
    13:00 +8°C° 2.4 mm 3 mps 737 mmHg 95%
    14:00 +8°C° 2.4 mm 3 mps 736 mmHg 95%
    15:00 +7°C° 1.5 mm 4 mps 736 mmHg 95%
    16:00 +7°C° 1.5 mm 4 mps 736 mmHg 95%
    17:00 +7°C° 1.5 mm 4 mps 736 mmHg 94%
    18:00 +7°C° 0.7 mm 5 mps 736 mmHg 94%
    19:00 +7°C° 0.7 mm 5 mps 736 mmHg 93%
    20:00 +7°C° 0.7 mm 5 mps 737 mmHg 93%
    21:00 +7°C° 0.2 mm 5 mps 737 mmHg 92%
    22:00 +7°C° 0.2 mm 5 mps 738 mmHg 91%
    23:00 +7°C° 0.2 mm 5 mps 738 mmHg 91%

    Tomorrow, 25 September, Tuesday

    Time Temperature Precipitation Wind Pressure Humidity
    00:00 +6°C° 0 mm 5 mps 739 mmHg 90%
    01:00 +5°C° 0 mm 5 mps 740 mmHg 89%
    02:00 +5°C° 0 mm 5 mps 741 mmHg 89%
    03:00 +5°C° 0 mm 5 mps 741 mmHg 89%
    04:00 +3°C° 0 mm 5 mps 742 mmHg 90%
    05:00 +3°C° 0 mm 5 mps 742 mmHg 91%
    06:00 +5°C° 0 mm 5 mps 743 mmHg 88%
    07:00 +5°C° 0 mm 5 mps 744 mmHg 86%
    08:00 +5°C° 0 mm 5 mps 745 mmHg 84%
    09:00 +5°C° 0 mm 6 mps 745 mmHg 78%
    10:00 +7°C° 0 mm 6 mps 746 mmHg 71%
    11:00 +8°C° 0 mm 6 mps 747 mmHg 65%
    12:00 +8°C° 0.1 mm 6 mps 747 mmHg 62%
    13:00 +8°C° 0.1 mm 6 mps 748 mmHg 60%
    14:00 +8°C° 0.1 mm 6 mps 748 mmHg 57%
    15:00 +8°C° 0.1 mm 6 mps 749 mmHg 59%
    16:00 +7°C° 0.1 mm 5 mps 750 mmHg 60%
    17:00 +6°C° 0.1 mm 5 mps 750 mmHg 61%
    18:00 +5°C° 0 mm 4 mps 751 mmHg 63%
    19:00 +4°C° 0 mm 4 mps 752 mmHg 65%
    20:00 +3°C° 0 mm 4 mps 753 mmHg 68%
    21:00 +3°C° 0 mm 4 mps 753 mmHg 68%
    22:00 +3°C° 0 mm 3 mps 754 mmHg 69%
    23:00 +2°C° 0 mm 3 mps 754 mmHg 70%

    Day after tomorrow, 26 September, Wednesday

    Time Temperature Precipitation Wind Pressure Humidity
    00:00 +2°C° 0 mm 3 mps 755 mmHg 72%
    01:00 +2°C° 0 mm 3 mps 755 mmHg 74%
    02:00 +2°C° 0 mm 3 mps 755 mmHg 77%
    03:00 +2°C° 0 mm 3 mps 756 mmHg 82%
    04:00 +1°C° 0 mm 3 mps 756 mmHg 87%
    05:00 +1°C° 0 mm 3 mps 756 mmHg 92%
    06:00 +2°C° 0 mm 3 mps 756 mmHg 88%
    07:00 +3°C° 0 mm 3 mps 756 mmHg 85%
    08:00 +4°C° 0 mm 3 mps 756 mmHg 81%
    09:00 +6°C° 0 mm 4 mps 756 mmHg 72%
    10:00 +8°C° 0 mm 4 mps 756 mmHg 63%
    11:00 +10°C° 0 mm 5 mps 755 mmHg 54%
    12:00 +10°C° 0 mm 5 mps 754 mmHg 55%
    13:00 +10°C° 0 mm 5 mps 754 mmHg 56%
    14:00 +10°C° 0 mm 6 mps 753 mmHg 57%
    15:00 +9°C° 0.4 mm 6 mps 752 mmHg 65%
    16:00 +8°C° 0.4 mm 6 mps 751 mmHg 74%
    17:00 +7°C° 0.4 mm 6 mps 750 mmHg 82%
    18:00 +5°C° 1.1 mm 7 mps 749 mmHg 84%
    19:00 +5°C° 1.1 mm 7 mps 748 mmHg 86%
    20:00 +5°C° 1.1 mm 8 mps 747 mmHg 88%
    21:00 +5°C° 0.7 mm 7 mps 746 mmHg 89%
    22:00 +5°C° 0.7 mm 7 mps 745 mmHg 89%
    23:00 +5°C° 0.7 mm 7 mps 744 mmHg 89%

    27 September, Thursday

    Time Temperature Precipitation Wind Pressure Humidity
    00:00 +6°C° 0.9 mm 7 mps 744 mmHg 90%
    01:00 +7°C° 0.9 mm 6 mps 744 mmHg 91%
    02:00 +7°C° 0.9 mm 5 mps 743 mmHg 92%
    03:00 +7°C° 0.2 mm 4 mps 743 mmHg 92%
    04:00 +7°C° 0.2 mm 4 mps 743 mmHg 91%
    05:00 +7°C° 0.2 mm 3 mps 743 mmHg 90%
    06:00 +8°C° 0 mm 3 mps 743 mmHg 88%
    07:00 +8°C° 0 mm 3 mps 743 mmHg 86%
    08:00 +7°C° 0 mm 4 mps 743 mmHg 84%
    09:00 +10°C° 0.1 mm 4 mps 743 mmHg 77%
    10:00 +11°C° 0.1 mm 4 mps 743 mmHg 71%
    11:00 +13°C° 0.1 mm 5 mps 743 mmHg 64%
    12:00 +13°C° 0.1 mm 5 mps 743 mmHg 60%
    13:00 +13°C° 0.1 mm 5 mps 743 mmHg 56%
    14:00 +14°C° 0.1 mm 6 mps 743 mmHg 51%
    15:00 +13°C° 0 mm 5 mps 744 mmHg 56%
    16:00 +12°C° 0 mm 4 mps 744 mmHg 60%
    17:00 +11°C° 0 mm 3 mps 744 mmHg 64%
    18:00 +10°C° 0 mm 3 mps 745 mmHg 66%
    19:00 +9°C° 0 mm 3 mps 745 mmHg 69%
    20:00 +8°C° 0 mm 3 mps 746 mmHg 71%
    21:00 +7°C° 0 mm 3 mps 746 mmHg 74%
    22:00 +5°C° 0 mm 3 mps 746 mmHg 77%
    23:00 +6°C° 0 mm 2 mps 746 mmHg 80%

    28 September, Friday

    Time Temperature Precipitation Wind Pressure Humidity
    00:00 +5°C° 0 mm 2 mps 746 mmHg 83%
    01:00 +5°C° 0 mm 2 mps 746 mmHg 86%
    02:00 +4°C° 0 mm 2 mps 746 mmHg 88%
    03:00 +5°C° 0.2 mm 2 mps 745 mmHg 88%
    04:00 +5°C° 0.2 mm 2 mps 744 mmHg 87%
    05:00 +6°C° 0.2 mm 2 mps 743 mmHg 87%
    06:00 +7°C° 1.6 mm 3 mps 742 mmHg 89%
    07:00 +7°C° 1.6 mm 4 mps 741 mmHg 91%
    08:00 +8°C° 1.6 mm 4 mps 740 mmHg 93%
    09:00 +10°C° 0.7 mm 5 mps 739 mmHg 91%
    10:00 +11°C° 0.7 mm 6 mps 738 mmHg 88%
    11:00 +12°C° 0.7 mm 7 mps 738 mmHg 86%
    12:00 +12°C° 0.7 mm 7 mps 738 mmHg 85%
    13:00 +11°C° 0.7 mm 7 mps 738 mmHg 85%
    14:00 +11°C° 0.7 mm 6 mps 738 mmHg 85%
    15:00 +10°C° 0.4 mm 6 mps 739 mmHg 86%
    16:00 +9°C° 0.4 mm 5 mps 739 mmHg 87%
    17:00 +8°C° 0.4 mm 4 mps 740 mmHg 89%
    18:00 +7°C° 0.1 mm 4 mps 741 mmHg 89%
    19:00 +6°C° 0.1 mm 4 mps 742 mmHg 90%
    20:00 +5°C° 0.1 mm 4 mps 743 mmHg 90%
    21:00 +4°C° 0 mm 3 mps 744 mmHg 92%
    22:00 +3°C° 0 mm 3 mps 745 mmHg 94%
    23:00 +4°C° 0 mm 2 mps 746 mmHg 96%

    29 September, Saturday

    Time Temperature Precipitation Wind Pressure Humidity
    00:00 +3°C° 0 mm 2 mps 746 mmHg 96%
    01:00 +3°C° 0 mm 2 mps 747 mmHg 96%
    02:00 +3°C° 0 mm 1 mps 748 mmHg 96%
    03:00 +3°C° 0 mm 1 mps 748 mmHg 96%
    04:00 +3°C° 0 mm 1 mps 748 mmHg 95%
    05:00 +3°C° 0 mm 1 mps 749 mmHg 94%
    06:00 +4°C° 0.1 mm 1 mps 749 mmHg 92%
    07:00 +5°C° 0.1 mm 1 mps 750 mmHg 90%
    08:00 +6°C° 0.1 mm 1 mps 750 mmHg 88%
    09:00 +6°C° 0.2 mm 1 mps 751 mmHg 86%
    10:00 +6°C° 0.2 mm 2 mps 752 mmHg 85%
    11:00 +6°C° 0.2 mm 2 mps 752 mmHg 83%
    12:00 +6°C° 0.1 mm 2 mps 753 mmHg 80%
    13:00 +7°C° 0.1 mm 3 mps 753 mmHg 76%
    14:00 +7°C° 0.1 mm 3 mps 754 mmHg 73%
    15:00 +5°C° 0 mm 3 mps 754 mmHg 73%
    16:00 +6°C° 0 mm 2 mps 755 mmHg 73%
    17:00 +5°C° 0 mm 2 mps 755 mmHg 74%
    18:00 +4°C° 0 mm 2 mps 756 mmHg 76%
    19:00 +4°C° 0 mm 1 mps 757 mmHg 79%
    20:00 +2°C° 0 mm 1 mps 757 mmHg 82%
    21:00 +2°C° 0 mm 1 mps 758 mmHg 83%
    22:00 +2°C° 0 mm 1 mps 758 mmHg 84%
    23:00 +2°C° 0 mm 1 mps 759 mmHg 84%
    Show more